Temp
74 74 73 75 77 78 77 77 78 78 78 78 79 80 80 80 79 78 78 77 76 76 76 76 76 76 76 77 76 75 76 76 77 77 76 76 76 76 76 76 77 76 76 75 76 76 77 77 78 78 78 77 77 77 77 77 77 78 76 76 75 75 74
74 74 73 74 76 78 78 78 78 79 78 79 80 79 80 80 79 78 78 77 77 77 76 77 77 76 77 77 77 75 75 75 77 78 77 76 77 76 77 77 77 76 76 77 76 76 77 77 78 78 77 77 77 77 77 77 77 77 76 75 75 75 75
74 74 74 73 75 78 78 79 79 79 79 79 80 80 80 79 79 79 78 78 77 77 77 77 77 77 77 77 76 75 76 75 76 77 76 77 76 78 77 77 77 77 78 78 77 77 78 78 77 78 78 77 78 77 77 77 77 77 76 76 76 77 74
75 75 74 74 74 76 78 79 79 79 80 80 80 80 80 79 80 80 79 79 78 78 77 78 78 78 78 77 77 76 75 75 76 77 78 78 77 78 77 76 76 77 77 77 78 79 80 79 78 77 79 77 78 78 77 77 77 77 77 76 75 76 75
75 77 75 73 73 73 75 77 78 79 79 80 80 81 81 81 80 80 80 80 80 79 79 79 80 79 79 78 79 78 77 76 76 77 78 78 78 78 77 78 77 77 78 78 77 78 77 77 78 77 77 77 78 77 77 77 77 77 76 76 75 76 75
74 75 74 73 73 73 73 76 78 79 79 79 79 80 80 80 80 80 80 80 80 80 79 79 79 79 78 79 79 79 78 76 76 77 77 77 77 77 78 78 78 78 78 78 78 78 78 78 78 78 78 78 78 78 78 77 78 77 77 76 76 76 76
74 74 74 74 74 73 73 74 77 78 79 80 80 81 80 80 79 79 79 79 79 78 78 78 79 79 79 79 79 79 77 77 76 77 78 78 78 78 78 78 79 79 79 78 78 78 78 78 78 78 78 78 78 78 78 77 77 77 77 76 76 75 76
74 74 75 76 76 75 74 72 73 75 76 77 78 79 79 79 79 78 78 79 79 78 78 78 79 78 78 79 79 79 78 78 78 78 78 78 78 78 78 78 78 78 78 78 78 78 79 78 79 78 78 79 78 78 78 77 77 78 77 76 76 76 77
72 72 74 75 76 75 73 72 72 75 75 76 77 78 78 78 78 78 78 78 78 78 78 79 79 79 79 78 78 78 79 79 78 78 78 78 79 79 80 79 79 79 79 79 79 79 79 79 79 78 78 78 78 77 78 77 78 78 77 77 76 76 77
65 66 67 69 70 71 71 71 71 71 72 73 74 75 77 78 78 78 78 78 78 78 78 79 79 79 78 78 78 79 79 78 79 79 79 79 79 79 80 81 80 80 79 80 80 79 79 79 79 78 77 78 77 77 77 77 78 78 78 77 77 77 76
65 66 67 67 66 67 67 67 67 68 68 69 70 73 76 78 78 78 78 78 78 78 79 79 79 78 78 78 78 78 79 79 80 79 79 79 80 80 81 81 81 80 80 80 80 80 79 78 78 77 77 78 78 77 77 78 78 77 78 78 78 78 78
65 65 65 65 66 66 66 67 68 68 69 69 70 70 69 70 73 76 76 75 76 78 78 78 79 78 78 78 77 77 77 79 79 79 80 80 80 80 81 82 81 81 81 81 80 80 80 79 79 79 77 77 78 78 78 77 77 77 78 78 78 78 78
65 64 65 65 65 65 66 66 67 68 69 70 70 70 69 70 71 70 69 69 70 70 72 74 76 77 78 77 77 77 77 78 79 79 80 80 81 81 81 81 82 82 81 81 81 81 80 80 79 79 79 78 78 78 78 78 77 77 77 78 78 78 77
66 65 65 65 64 64 65 66 67 68 69 70 69 69 70 70 70 71 71 71 72 72 72 71 72 71 73 74 76 76 76 77 78 79 79 80 79 80 81 82 82 82 82 81 81 81 81 81 80 80 79 79 79 79 79 78 78 77 77 77 78 78 77
63 64 64 64 64 64 65 65 66 67 68 69 69 69 69 70 70 70 71 71 72 72 73 73 73 72 72 72 74 74 74 75 75 77 78 79 78 78 79 80 81 81 81 81 81 82 82 82 82 80 79 79 79 79 79 79 78 78 77 77 77 77 77
63 63 63 64 64 64 65 66 66 67 68 68 69 69 69 69 70 70 70 71 72 72 72 72 72 72 71 71 71 71 71 73 74 75 75 76 77 77 78 79 79 81 80 80 81 81 81 80 81 81 80 79 78 78 79 79 79 80 80 80 78 76 78
63 63 63 64 64 65 65 66 66 66 67 67 68 69 69 69 69 70 71 71 71 71 72 72 71 71 71 71 70 70 71 71 71 72 73 75 75 76 76 77 78 77 78 79 80 79 79 80 79 80 80 80 79 78 78 79 79 78 72 73 77 79 76
63 63 63 64 64 65 65 65 65 66 66 67 68 68 68 68 69 69 69 70 70 70 71 71 71 71 71 71 70 71 71 71 71 70 70 71 71 71 70 71 72 74 76 78 79 78 79 79 78 78 79 79 78 78 78 78 79 72 70 71 72 78 77
62 63 63 64 64 64 65 65 65 66 66 67 67 68 69 69 69 69 69 69 70 71 71 71 70 71 71 70 70 70 70 70 70 70 70 70 69 70 71 70 70 70 70 71 73 75 76 76 77 76 77 78 77 77 77 77 74 70 69 69 69 71 78
62 62 63 63 64 64 65 65 66 66 66 67 67 67 68 69 69 69 70 70 70 70 70 70 70 69 70 70 70 70 70 70 70 70 70 70 70 69 69 70 69 69 71 71 71 70 71 72 72 72 72 74 75 76 77 76 74 68 67 68 68 69 73
61 61 61 62 62 63 64 65 65 66 66 66 66 67 67 67 68 69 69 69 69 70 69 69 69 69 69 69 69 69 70 70 70 70 70 70 71 70 70 69 69 69 70 69 69 70 69 70 70 71 72 72 72 72 74 77 70 66 66 65 66 67 72
60 60 60 61 62 61 62 63 64 64 64 66 66 66 66 66 67 67 67 68 68 68 69 68 68 68 69 68 69 69 69 70 69 70 70 70 70 70 69 69 68 69 69 70 68 69 70 70 71 70 71 71 71 72 71 71 61 62 63 64 64 67 72
62 62 62 62 63 62 62 63 63 64 66 65 65 65 65 66 66 66 66 66 66 66 66 67 67 68 69 69 69 69 69 69 69 69 69 69 69 69 69 69 68 69 70 69 69 69 69 70 71 71 71 72 72 71 70 71 64 60 60 60 60 64 69
63 64 65 65 65 64 63 63 65 65 65 65 65 66 66 66 65 65 65 65 65 65 65 65 65 66 67 68 68 68 69 69 69 68 69 68 68 68 68 69 70 70 72 70 70 69 70 70 70 71 71 72 72 72 71 70 65 60 59 58 58 64 69
62 63 64 64 63 63 63 63 64 64 64 64 64 65 66 65 64 64 63 64 64 64 64 64 65 65 66 66 68 68 68 69 69 68 68 68 68 68 68 69 69 70 70 70 70 70 70 71 70 70 71 72 72 75 74 70 66 58 57 57 57 62 68
60 61 62 63 64 63 63 64 64 64 63 63 63 65 65 66 64 64 63 63 64 63 63 63 64 65 66 67 67 67 68 68 69 69 68 68 68 68 68 69 70 69 69 69 70 70 70 70 70 70 70 71 72 73 71 68 67 63 55 56 57 60 66
61 60 60 61 62 65 62 63 63 62 62 62 63 65 66 65 63 62 63 63 62 62 63 64 65 65 65 66 67 67 68 67 68 68 68 69 68 68 67 67 68 69 69 69 69 68 68 69 69 70 70 70 71 69 67 68 66 63 54 53 53 57 62
59 60 62 62 64 63 60 61 60 61 62 62 63 64 65 64 63 62 62 62 62 63 65 65 65 65 65 65 65 66 67 67 68 67 66 66 65 63 63 63 64 67 69 69 68 68 68 68 68 67 66 66 67 67 67 69 69 66 59 54 53 54 56
55 56 56 57 58 61 61 58 58 58 59 60 61 61 62 63 62 61 61 60 60 63 65 66 66 65 66 65 65 65 65 65 66 66 66 65 64 63 61 62 62 62 64 67 68 67 67 66 66 65 64 64 64 65 66 66 67 67 65 58 54 54 55
54 54 55 56 57 57 59 56 57 57 57 58 59 59 59 60 60 61 59 58 60 62 64 65 64 65 65 66 64 64 64 65 65 65 65 65 64 63 62 61 61 62 63 63 67 66 65 64 65 64 64 63 63 63 63 63 63 65 66 63 57 55 54
53 53 53 54 55 57 56 56 55 56 56 57 57 58 58 58 58 59 58 58 61 61 62 63 64 64 63 63 64 64 63 63 63 63 64 64 63 63 62 62 62 61 62 63 62 66 65 64 65 64 64 64 62 61 61 61 61 61 64 65 64 58 56
53 53 54 55 55 56 55 55 55 55 56 56 56 57 58 57 58 57 56 59 60 61 62 63 62 63 61 62 62 62 63 62 61 62 63 63 63 61 61 61 61 61 60 61 63 64 65 65 65 65 64 62 63 62 62 62 61 60 60 62 63 62 59
52 52 53 53 55 56 54 54 54 54 55 54 54 55 56 56 57 56 57 58 59 60 61 63 62 61 60 59 61 61 61 60 58 58 58 59 61 62 62 61 60 60 60 59 60 63 65 65 65 63 63 63 62 62 61 61 60 59 59 58 58 58 60
52 53 52 53 55 54 52 52 51 53 53 53 53 53 54 55 55 56 56 57 58 58 61 62 62 59 59 59 60 62 62 61 64 59 55 55 55 56 59 60 59 57 57 56 56 60 60 61 60 60 61 61 62 61 60 60 59 56 54 55 54 54 56
51 52 52 53 55 55 51 53 53 52 53 53 52 52 53 53 54 55 55 57 57 57 60 61 62 60 58 59 59 59 63 60 59 58 56 55 54 53 52 52 55 57 55 54 54 56 59 59 58 58 57 57 57 60 60 60 58 56 50 50 48 48 50
51 52 53 53 55 53 54 55 53 52 53 53 52 51 53 52 53 53 55 56 56 56 59 60 60 58 57 59 59 60 60 59 59 58 58 57 55 55 55 53 47 47 53 55 54 50 49 54 57 58 56 55 55 56 57 58 58 49 42 41 40 41 42
52 52 53 53 53 52 53 53 55 53 54 52 52 53 53 53 52 52 54 54 54 55 55 56 58 58 56 59 59 61 61 59 59 58 57 57 56 57 56 55 53 45 44 49 51 47 44 44 46 50 54 58 56 53 49 50 46 41 40 40 40 39 40
52 53 54 53 53 53 54 54 54 54 55 52 52 52 51 52 51 51 53 53 54 53 53 54 56 55 55 56 57 62 60 57 58 58 58 56 56 56 56 54 53 54 47 44 45 45 43 43 43 43 44 45 50 58 57 48 44 41 40 39 39 39 40
MSLP
1012.10 1012.18 1012.06 1011.94 1012.02 1012.14 1012.38 1012.50 1012.62 1012.90 1013.06 1013.30 1013.38 1013.50 1013.70 1013.86 1014.06 1014.30 1014.70 1015.02 1015.30 1015.58 1015.66 1015.78 1015.98 1016.14 1016.38 1016.54 1016.62 1016.70 1016.78 1016.94 1017.06 1017.34 1017.54 1017.70 1017.74 1017.98 1018.26 1018.34 1018.50 1018.62 1018.70 1018.94 1018.94 1018.94 1018.74 1018.70 1018.82 1018.86 1018.94 1019.02 1019.10 1019.18 1019.22 1019.26 1019.34 1019.30 1019.34 1019.34 1019.46 1019.54 1019.66
1012.14 1012.10 1012.02 1011.94 1011.98 1011.94 1011.94 1012.02 1012.26 1012.50 1012.78 1012.94 1013.06 1013.22 1013.38 1013.62 1013.86 1014.18 1014.42 1014.62 1014.86 1015.10 1015.30 1015.50 1015.78 1015.98 1016.14 1016.26 1016.38 1016.58 1016.78 1016.90 1016.98 1017.06 1017.26 1017.50 1017.58 1017.70 1017.74 1017.98 1018.18 1018.38 1018.42 1018.46 1018.50 1018.54 1018.54 1018.58 1018.62 1018.78 1018.90 1018.94 1019.02 1019.02 1019.10 1019.14 1019.18 1019.26 1019.34 1019.38 1019.54 1019.58 1019.58
1011.78 1011.90 1011.82 1011.94 1011.98 1011.78 1011.78 1011.86 1011.98 1012.06 1012.30 1012.54 1012.70 1012.98 1013.14 1013.30 1013.46 1013.74 1014.10 1014.46 1014.78 1014.90 1015.02 1015.26 1015.42 1015.70 1015.90 1016.10 1016.34 1016.46 1016.58 1016.78 1016.98 1017.10 1017.30 1017.42 1017.54 1017.58 1017.62 1017.74 1017.90 1018.06 1018.06 1018.10 1018.26 1018.38 1018.30 1018.46 1018.46 1018.54 1018.70 1018.86 1018.90 1018.98 1019.02 1019.14 1019.14 1019.18 1019.22 1019.34 1019.50 1019.58 1019.58
1011.38 1011.46 1011.46 1011.54 1011.66 1011.50 1011.34 1011.42 1011.66 1011.78 1011.86 1011.94 1012.18 1012.42 1012.74 1012.98 1013.02 1013.26 1013.58 1013.94 1014.46 1014.74 1015.10 1015.10 1015.22 1015.46 1015.70 1015.98 1016.22 1016.38 1016.54 1016.58 1016.70 1016.90 1016.98 1017.06 1017.26 1017.34 1017.58 1017.70 1017.74 1017.78 1018.06 1018.14 1018.06 1018.10 1018.14 1018.22 1018.38 1018.46 1018.50 1018.70 1018.78 1018.78 1018.90 1019.02 1019.06 1019.14 1019.22 1019.34 1019.50 1019.50 1019.50
1011.06 1010.94 1011.18 1011.58 1011.78 1011.78 1011.70 1011.54 1011.58 1011.62 1011.74 1011.70 1011.78 1011.90 1012.14 1012.46 1012.78 1013.14 1013.42 1013.58 1013.78 1014.26 1014.46 1014.70 1014.90 1015.10 1015.30 1015.54 1015.82 1016.02 1016.26 1016.42 1016.58 1016.66 1016.78 1016.82 1016.94 1017.10 1017.38 1017.54 1017.62 1017.74 1017.70 1017.78 1017.86 1018.02 1018.10 1018.22 1018.30 1018.42 1018.50 1018.50 1018.62 1018.70 1018.82 1018.82 1018.94 1019.02 1019.14 1019.26 1019.46 1019.50 1019.58
1011.06 1010.94 1011.10 1011.42 1011.66 1011.82 1011.66 1011.42 1011.30 1011.34 1011.54 1011.78 1011.90 1012.06 1012.14 1012.34 1012.62 1013.02 1013.18 1013.46 1013.74 1013.82 1014.02 1014.38 1014.74 1014.94 1015.34 1015.38 1015.58 1015.82 1016.02 1016.22 1016.30 1016.42 1016.62 1016.74 1016.90 1017.10 1017.18 1017.18 1017.30 1017.42 1017.58 1017.62 1017.58 1017.74 1017.82 1018.02 1018.18 1018.30 1018.42 1018.42 1018.50 1018.62 1018.66 1018.78 1018.78 1018.86 1019.02 1019.14 1019.30 1019.38 1019.50
1010.90 1010.86 1011.02 1011.26 1011.50 1011.66 1011.70 1011.62 1011.42 1011.34 1011.34 1011.34 1011.38 1011.54 1011.86 1012.26 1012.58 1012.70 1012.98 1013.38 1013.50 1013.90 1014.18 1014.46 1014.50 1014.74 1014.98 1015.18 1015.46 1015.66 1015.98 1016.14 1016.26 1016.38 1016.42 1016.62 1016.70 1016.90 1016.94 1016.94 1016.98 1017.10 1017.10 1017.22 1017.50 1017.46 1017.74 1017.86 1017.94 1018.06 1018.14 1018.26 1018.38 1018.46 1018.58 1018.66 1018.74 1018.70 1018.86 1019.02 1019.18 1019.22 1019.26
1010.70 1010.94 1010.82 1010.78 1011.02 1011.26 1011.46 1011.58 1011.46 1011.34 1011.34 1011.46 1011.62 1011.74 1011.94 1012.02 1012.26 1012.66 1012.94 1013.06 1013.30 1013.58 1013.86 1014.14 1014.38 1014.54 1014.74 1014.94 1015.18 1015.46 1015.70 1015.86 1015.98 1016.14 1016.30 1016.50 1016.62 1016.78 1016.78 1016.82 1016.86 1016.86 1016.98 1017.22 1017.18 1017.26 1017.50 1017.62 1017.70 1017.78 1017.90 1018.10 1018.18 1018.26 1018.34 1018.42 1018.50 1018.54 1018.66 1018.90 1019.06 1019.10 1019.06
1011.06 1011.02 1011.14 1011.10 1011.10 1011.34 1011.50 1011.42 1011.30 1011.14 1011.26 1011.38 1011.54 1011.70 1011.78 1011.98 1012.22 1012.42 1012.66 1012.90 1013.10 1013.42 1013.66 1013.70 1013.90 1014.06 1014.34 1014.70 1014.98 1015.22 1015.38 1015.58 1015.86 1016.02 1016.22 1016.42 1016.50 1016.66 1016.66 1016.66 1016.70 1016.70 1016.98 1017.06 1017.10 1017.10 1017.22 1017.34 1017.46 1017.54 1017.70 1017.86 1017.94 1018.06 1018.18 1018.22 1018.30 1018.30 1018.46 1018.66 1018.82 1018.94 1018.94
1013.02 1012.26 1012.22 1012.10 1012.02 1012.06 1012.22 1012.38 1012.26 1011.94 1011.66 1011.58 1011.66 1011.70 1011.74 1011.82 1011.94 1012.14 1012.38 1012.58 1012.86 1013.26 1013.38 1013.58 1013.70 1013.94 1014.26 1014.54 1014.78 1014.90 1015.22 1015.50 1015.62 1015.90 1016.10 1016.30 1016.26 1016.42 1016.46 1016.46 1016.54 1016.58 1016.78 1016.82 1016.90 1017.10 1017.06 1017.06 1017.18 1017.34 1017.54 1017.74 1017.82 1017.90 1017.98 1018.06 1018.10 1018.18 1018.22 1018.38 1018.54 1018.70 1018.78
1014.14 1013.50 1012.82 1012.78 1012.58 1012.38 1012.30 1012.58 1013.18 1013.42 1013.66 1013.62 1013.30 1012.62 1012.10 1011.70 1011.78 1012.06 1012.26 1012.38 1012.66 1012.86 1012.94 1013.22 1013.38 1013.82 1014.14 1014.38 1014.74 1014.90 1015.10 1015.34 1015.50 1015.78 1015.94 1016.02 1016.02 1016.14 1016.18 1016.26 1016.34 1016.42 1016.58 1016.66 1016.82 1016.82 1016.94 1017.02 1016.98 1017.22 1017.42 1017.62 1017.66 1017.74 1017.82 1017.86 1017.90 1018.02 1018.10 1018.14 1018.14 1018.30 1018.42
1014.58 1014.30 1014.30 1014.06 1013.90 1013.50 1013.10 1012.58 1012.50 1012.74 1013.10 1013.34 1013.54 1013.50 1013.62 1013.70 1013.26 1012.90 1012.90 1013.22 1013.14 1013.10 1013.02 1013.10 1013.22 1013.58 1013.94 1014.22 1014.66 1014.90 1015.06 1015.18 1015.30 1015.50 1015.66 1015.74 1015.82 1015.86 1015.90 1015.98 1016.14 1016.26 1016.30 1016.38 1016.62 1016.66 1016.70 1016.86 1016.94 1017.06 1017.22 1017.26 1017.34 1017.42 1017.50 1017.54 1017.66 1017.78 1017.90 1017.94 1017.98 1018.06 1018.14
1014.34 1014.30 1014.38 1013.98 1013.74 1013.86 1014.10 1013.98 1013.54 1012.74 1012.26 1012.46 1012.82 1012.94 1013.18 1013.38 1013.30 1013.38 1013.78 1014.06 1014.46 1014.74 1014.70 1014.26 1013.98 1013.86 1013.90 1014.10 1014.38 1014.74 1014.94 1015.02 1015.06 1015.14 1015.30 1015.42 1015.54 1015.58 1015.66 1015.78 1015.82 1015.98 1016.14 1016.10 1016.26 1016.46 1016.62 1016.66 1016.78 1016.74 1016.86 1016.98 1017.06 1017.22 1017.26 1017.38 1017.46 1017.62 1017.66 1017.70 1017.78 1017.86 1018.02
1014.34 1014.58 1014.74 1014.46 1013.98 1013.50 1013.46 1013.90 1013.90 1013.70 1012.94 1012.42 1012.58 1012.66 1012.66 1012.66 1012.90 1013.42 1013.54 1013.66 1013.42 1013.14 1013.58 1013.98 1014.14 1014.26 1014.54 1014.58 1014.50 1014.58 1014.66 1014.70 1014.78 1014.94 1015.06 1015.14 1015.30 1015.42 1015.46 1015.54 1015.62 1015.70 1015.74 1015.86 1016.10 1016.18 1016.26 1016.46 1016.58 1016.50 1016.54 1016.66 1016.82 1016.86 1016.94 1017.14 1017.30 1017.38 1017.46 1017.50 1017.58 1017.74 1017.90
1014.86 1014.86 1014.78 1014.50 1014.18 1013.82 1013.70 1013.74 1013.66 1013.50 1013.26 1012.90 1012.66 1012.58 1012.50 1012.58 1012.66 1012.78 1013.18 1013.62 1013.54 1013.10 1012.78 1012.66 1013.14 1013.70 1013.82 1014.22 1014.58 1014.58 1014.50 1014.54 1014.66 1014.70 1014.86 1014.98 1015.14 1015.26 1015.38 1015.42 1015.46 1015.50 1015.62 1015.74 1015.86 1015.86 1015.90 1015.98 1016.14 1016.38 1016.58 1016.54 1016.62 1016.74 1016.78 1017.02 1017.14 1017.14 1017.26 1017.42 1017.50 1017.50 1017.66
1014.74 1014.86 1014.74 1014.42 1014.10 1013.98 1013.66 1013.18 1013.10 1012.90 1012.50 1012.50 1012.58 1012.66 1012.74 1012.74 1012.66 1012.62 1012.70 1012.90 1013.30 1013.66 1013.38 1012.82 1013.10 1013.58 1014.02 1014.14 1014.10 1014.30 1014.54 1014.70 1014.70 1014.70 1014.78 1014.98 1015.06 1015.14 1015.14 1015.22 1015.26 1015.38 1015.54 1015.62 1015.62 1015.66 1015.70 1015.86 1015.98 1016.22 1016.42 1016.58 1016.62 1016.62 1016.70 1016.82 1016.78 1016.78 1016.82 1016.90 1017.14 1017.34 1017.42
1014.90 1014.90 1014.82 1014.46 1014.06 1013.74 1013.42 1013.18 1013.02 1012.86 1012.74 1012.82 1012.90 1012.78 1012.74 1012.74 1012.62 1012.54 1012.46 1012.58 1012.98 1013.74 1013.98 1013.54 1013.34 1013.46 1013.78 1014.06 1013.98 1014.14 1014.38 1014.58 1014.82 1015.06 1015.06 1014.86 1014.86 1014.90 1015.02 1015.10 1015.14 1015.26 1015.34 1015.38 1015.42 1015.54 1015.62 1015.74 1016.02 1016.10 1016.18 1016.34 1016.50 1016.62 1016.62 1016.54 1016.46 1016.46 1016.58 1016.74 1016.78 1016.98 1017.22
1015.26 1015.10 1014.94 1014.74 1014.42 1014.10 1013.90 1013.66 1013.50 1013.42 1013.34 1013.22 1012.98 1012.82 1012.78 1012.82 1012.78 1012.78 1012.90 1012.82 1012.94 1013.34 1013.78 1013.86 1013.46 1013.42 1013.66 1013.74 1013.78 1013.90 1014.22 1014.66 1014.82 1014.94 1015.42 1015.74 1015.26 1014.98 1015.10 1015.26 1015.66 1015.78 1015.50 1015.26 1015.30 1015.34 1015.42 1015.66 1015.78 1015.82 1015.86 1015.98 1016.14 1016.30 1016.34 1016.30 1016.14 1016.22 1016.38 1016.50 1016.62 1016.70 1016.86
1015.62 1015.34 1015.22 1015.02 1014.78 1014.50 1014.22 1013.94 1013.70 1013.62 1013.54 1013.38 1013.14 1012.82 1012.46 1012.26 1012.50 1012.62 1012.46 1012.42 1012.50 1012.74 1013.50 1014.06 1014.22 1013.98 1013.90 1013.90 1014.02 1014.14 1014.30 1014.58 1014.98 1015.26 1015.46 1016.30 1016.62 1015.70 1014.74 1014.94 1015.42 1016.14 1016.66 1016.54 1015.94 1015.46 1015.46 1015.54 1015.58 1015.66 1015.66 1015.74 1015.94 1016.02 1015.98 1016.02 1015.86 1015.98 1016.10 1016.26 1016.38 1016.50 1016.58
1016.02 1015.82 1015.62 1015.38 1015.06 1014.74 1014.50 1014.22 1013.98 1013.82 1013.74 1013.66 1013.46 1013.22 1013.10 1012.74 1012.58 1012.70 1012.62 1012.58 1012.54 1012.70 1013.06 1013.54 1014.06 1014.46 1014.78 1014.46 1014.26 1014.34 1014.38 1014.50 1014.82 1015.10 1015.14 1015.34 1015.90 1016.54 1016.06 1014.90 1014.90 1015.46 1016.10 1016.50 1016.14 1016.10 1016.06 1015.86 1015.70 1015.66 1015.74 1015.78 1015.82 1015.82 1015.78 1015.82 1015.70 1015.82 1015.94 1016.06 1016.22 1016.34 1016.46
1016.50 1016.30 1016.22 1015.98 1015.74 1015.34 1014.94 1014.66 1014.46 1014.38 1014.30 1014.22 1014.02 1013.74 1013.58 1013.46 1013.10 1012.98 1013.14 1013.10 1013.06 1013.06 1013.18 1013.38 1013.70 1014.14 1014.62 1014.82 1014.82 1014.82 1014.74 1014.70 1014.82 1014.98 1014.98 1014.90 1015.18 1015.94 1016.66 1016.14 1015.42 1015.66 1015.66 1015.90 1015.94 1015.66 1015.82 1016.26 1016.42 1016.22 1015.90 1015.78 1015.82 1015.98 1016.02 1015.86 1015.78 1015.86 1015.94 1016.06 1016.18 1016.34 1016.38
1016.94 1016.62 1016.54 1016.34 1016.10 1015.86 1015.54 1015.30 1015.10 1014.94 1014.94 1014.70 1014.62 1014.42 1013.94 1013.94 1013.66 1013.58 1013.74 1013.54 1013.62 1013.78 1013.90 1013.90 1014.18 1014.54 1014.58 1014.86 1015.02 1015.02 1014.78 1014.62 1014.66 1014.70 1014.74 1014.90 1015.30 1015.78 1016.22 1016.54 1016.22 1015.58 1015.14 1015.34 1016.18 1016.50 1015.90 1015.66 1015.66 1015.74 1015.98 1016.02 1015.90 1015.86 1015.90 1015.78 1015.98 1016.14 1016.22 1016.30 1016.38 1016.46 1016.46
1016.98 1016.82 1016.58 1016.34 1016.18 1016.10 1015.82 1015.58 1015.42 1015.26 1015.06 1015.02 1015.10 1015.06 1014.82 1014.50 1014.14 1013.90 1013.94 1014.06 1014.14 1014.18 1014.42 1014.50 1014.70 1014.90 1014.86 1015.02 1015.10 1015.02 1014.98 1014.90 1014.90 1014.94 1014.94 1015.02 1015.34 1015.66 1015.90 1016.26 1016.30 1015.66 1015.26 1015.90 1016.34 1016.46 1015.98 1015.62 1015.50 1015.26 1015.26 1015.38 1015.50 1015.62 1015.62 1015.58 1015.70 1015.90 1016.10 1016.22 1016.38 1016.50 1016.50
1016.98 1016.82 1016.62 1016.46 1016.22 1016.14 1016.06 1015.90 1015.66 1015.54 1015.50 1015.54 1015.54 1015.46 1015.22 1014.94 1014.82 1014.62 1014.58 1014.58 1014.58 1014.62 1014.82 1014.94 1015.26 1015.26 1015.22 1015.22 1015.18 1015.10 1015.14 1015.14 1015.18 1015.26 1015.26 1015.26 1015.46 1015.66 1015.78 1015.66 1015.70 1015.66 1015.50 1015.90 1016.10 1016.06 1015.82 1015.50 1015.46 1015.46 1015.54 1015.66 1015.70 1015.58 1015.66 1015.54 1015.58 1015.74 1016.02 1016.30 1016.46 1016.54 1016.46
1017.42 1017.18 1016.94 1016.78 1016.66 1016.62 1016.46 1016.30 1016.10 1015.98 1015.82 1015.82 1015.98 1015.82 1015.54 1015.34 1015.22 1015.26 1015.34 1015.22 1015.14 1014.94 1015.06 1015.34 1015.54 1015.42 1015.42 1015.38 1015.18 1015.06 1015.06 1015.10 1015.06 1015.10 1015.18 1015.26 1015.38 1015.54 1015.58 1015.50 1015.42 1015.38 1015.42 1015.66 1015.74 1015.74 1015.62 1015.50 1015.42 1015.34 1015.26 1015.22 1015.26 1015.22 1015.42 1015.66 1016.02 1016.30 1016.38 1016.34 1016.38 1016.42 1016.38
1017.74 1017.50 1017.34 1017.06 1016.78 1016.62 1016.50 1016.42 1016.34 1016.34 1016.38 1016.42 1016.38 1016.10 1015.90 1015.74 1015.66 1015.70 1015.74 1015.70 1015.54 1015.46 1015.54 1015.58 1015.78 1015.70 1015.42 1015.22 1015.10 1015.10 1015.30 1015.34 1015.34 1015.26 1015.30 1015.30 1015.42 1015.50 1015.50 1015.34 1015.26 1015.30 1015.38 1015.42 1015.46 1015.54 1015.50 1015.46 1015.42 1015.46 1015.34 1015.18 1015.18 1015.30 1015.46 1015.86 1016.10 1016.22 1016.30 1016.34 1016.34 1016.34 1016.30
1017.90 1017.70 1017.62 1017.38 1017.22 1016.90 1016.82 1016.86 1016.90 1017.02 1016.98 1016.86 1016.62 1016.38 1016.30 1016.26 1016.26 1016.42 1016.34 1016.18 1016.10 1016.18 1016.06 1015.98 1016.02 1015.94 1015.86 1015.70 1015.50 1015.34 1015.34 1015.42 1015.30 1015.42 1015.46 1015.46 1015.54 1015.46 1015.54 1015.46 1015.34 1015.22 1015.30 1015.42 1015.38 1015.34 1015.34 1015.34 1015.34 1015.38 1015.34 1015.22 1015.18 1015.30 1015.62 1015.66 1015.94 1016.14 1016.18 1016.14 1016.14 1016.10 1016.18
1018.02 1017.82 1017.66 1017.50 1017.34 1017.22 1017.30 1017.30 1017.34 1017.26 1017.18 1017.18 1017.06 1016.86 1016.70 1016.58 1016.70 1016.86 1016.82 1016.78 1016.78 1016.62 1016.26 1016.06 1015.98 1015.86 1015.86 1015.90 1015.90 1015.90 1015.78 1015.62 1015.54 1015.66 1015.86 1015.78 1015.70 1015.90 1015.98 1015.94 1015.66 1015.30 1015.14 1015.14 1015.26 1015.34 1015.38 1015.42 1015.46 1015.58 1015.62 1015.62 1015.62 1015.70 1015.86 1015.78 1015.98 1016.26 1016.30 1016.22 1016.14 1016.10 1016.10
1018.34 1018.34 1018.26 1018.06 1017.90 1017.74 1017.74 1017.82 1017.86 1017.94 1017.90 1017.70 1017.54 1017.38 1017.22 1016.94 1017.02 1017.10 1017.10 1017.18 1017.18 1016.74 1016.38 1016.22 1016.10 1016.10 1016.14 1016.14 1016.14 1016.10 1016.10 1016.10 1016.10 1016.18 1016.26 1016.46 1016.46 1016.46 1016.38 1016.10 1015.78 1015.50 1015.30 1015.18 1015.18 1015.30 1015.46 1015.58 1015.74 1015.86 1016.02 1016.06 1016.02 1015.98 1016.02 1016.10 1016.10 1016.14 1016.22 1016.30 1016.26 1016.18 1016.14
1018.66 1018.62 1018.58 1018.46 1018.34 1018.22 1018.10 1018.14 1018.18 1018.22 1018.18 1018.06 1017.90 1017.82 1017.70 1017.50 1017.50 1017.50 1017.50 1017.66 1017.38 1016.98 1016.66 1016.42 1016.30 1016.22 1016.18 1016.26 1016.42 1016.38 1016.38 1016.42 1016.46 1016.50 1016.54 1016.58 1016.54 1016.46 1016.38 1016.22 1016.06 1015.94 1015.82 1015.62 1015.42 1015.58 1015.82 1015.98 1015.94 1016.10 1016.34 1016.46 1016.46 1016.38 1016.30 1016.22 1016.18 1016.14 1016.18 1016.26 1016.34 1016.34 1016.30
1018.74 1018.82 1018.78 1018.66 1018.58 1018.42 1018.38 1018.38 1018.38 1018.30 1018.26 1018.26 1018.18 1018.06 1018.02 1017.94 1017.82 1017.74 1017.94 1018.02 1017.66 1017.42 1017.10 1016.86 1016.62 1016.50 1016.50 1016.54 1016.58 1016.62 1016.70 1016.62 1016.66 1016.70 1016.74 1016.82 1016.70 1016.66 1016.58 1016.46 1016.26 1016.26 1016.18 1015.98 1015.78 1015.74 1016.06 1016.18 1016.18 1016.34 1016.50 1016.70 1016.98 1016.94 1016.70 1016.50 1016.54 1016.62 1016.62 1016.54 1016.50 1016.58 1016.54
1018.82 1018.78 1018.78 1018.74 1018.66 1018.58 1018.54 1018.50 1018.46 1018.46 1018.38 1018.38 1018.42 1018.34 1018.26 1018.18 1018.06 1017.98 1018.26 1018.02 1017.78 1017.54 1017.30 1017.10 1017.02 1016.94 1016.98 1016.90 1016.86 1016.94 1016.98 1016.98 1016.94 1016.94 1016.94 1016.94 1016.94 1016.90 1016.78 1016.70 1016.58 1016.50 1016.46 1016.30 1016.02 1016.02 1016.18 1016.50 1016.50 1016.58 1016.74 1016.98 1017.06 1017.14 1017.18 1017.18 1017.10 1017.10 1017.06 1016.98 1016.90 1016.82 1016.78
1018.82 1018.74 1018.66 1018.66 1018.74 1018.62 1018.62 1018.58 1018.62 1018.66 1018.66 1018.62 1018.66 1018.58 1018.42 1018.30 1018.30 1018.34 1018.22 1018.02 1017.86 1017.62 1017.38 1017.26 1017.26 1017.30 1017.22 1017.14 1017.06 1017.02 1017.14 1017.30 1017.46 1017.54 1017.50 1017.42 1017.30 1017.18 1017.14 1017.02 1016.94 1016.86 1016.86 1016.78 1016.54 1016.30 1016.30 1016.46 1016.74 1016.98 1017.10 1017.26 1017.34 1017.34 1017.38 1017.42 1017.46 1017.66 1017.66 1017.74 1017.70 1017.54 1017.30
1018.90 1018.90 1018.90 1018.78 1018.66 1018.70 1018.78 1018.78 1018.78 1018.78 1018.70 1018.70 1018.74 1018.66 1018.58 1018.50 1018.42 1018.34 1018.22 1018.10 1017.98 1017.78 1017.58 1017.50 1017.54 1017.58 1017.54 1017.46 1017.34 1017.26 1017.38 1017.54 1017.66 1018.02 1018.18 1018.26 1018.26 1018.14 1017.86 1017.62 1017.50 1017.34 1017.42 1017.42 1017.14 1017.06 1017.18 1017.18 1017.26 1017.46 1017.58 1017.66 1017.58 1017.54 1017.50 1017.58 1017.74 1018.14 1018.42 1018.46 1018.42 1018.18 1017.78
1018.74 1018.82 1018.90 1018.78 1018.70 1018.58 1018.58 1018.66 1018.70 1018.82 1018.82 1018.70 1018.74 1018.62 1018.54 1018.54 1018.54 1018.46 1018.34 1018.22 1018.10 1017.90 1017.74 1017.74 1017.74 1017.70 1017.70 1017.66 1017.58 1017.62 1017.58 1017.86 1018.06 1018.30 1018.50 1018.62 1018.74 1018.98 1019.22 1019.14 1018.58 1018.30 1018.22 1018.14 1017.98 1017.54 1017.38 1017.46 1017.74 1018.02 1018.14 1018.06 1018.10 1017.86 1017.70 1017.58 1017.70 1018.02 1018.70 1018.78 1018.86 1018.62 1018.34
1018.58 1018.70 1018.78 1018.86 1018.82 1018.86 1018.78 1018.74 1018.70 1018.70 1018.74 1018.82 1018.86 1018.78 1018.70 1018.70 1018.62 1018.58 1018.50 1018.42 1018.30 1018.14 1017.94 1017.90 1017.90 1017.90 1017.98 1017.90 1017.82 1017.86 1017.94 1018.06 1018.14 1018.30 1018.50 1018.66 1018.82 1018.90 1019.14 1019.50 1019.58 1019.38 1018.90 1018.66 1018.46 1018.18 1017.86 1017.54 1017.90 1018.02 1017.94 1018.06 1018.38 1018.30 1017.94 1017.94 1018.02 1018.46 1018.30 1018.30 1018.50 1018.62 1018.66
1018.38 1018.50 1018.58 1018.86 1018.94 1019.10 1019.06 1018.94 1018.90 1018.82 1018.62 1018.62 1018.86 1018.86 1018.86 1018.78 1018.74 1018.66 1018.54 1018.54 1018.50 1018.46 1018.42 1018.22 1018.14 1018.18 1018.14 1018.10 1018.10 1018.02 1018.06 1018.18 1018.30 1018.42 1018.54 1018.66 1018.74 1018.86 1018.90 1018.98 1019.30 1019.50 1019.58 1019.42 1019.42 1019.02 1018.34 1018.10 1018.10 1018.10 1018.10 1018.06 1018.06 1018.18 1018.14 1018.18 1018.30 1018.46 1018.58 1018.30 1018.10 1018.26 1018.30
1018.46 1018.38 1018.42 1018.74 1018.70 1018.82 1018.98 1019.10 1019.10 1018.98 1018.78 1018.78 1018.90 1018.90 1018.90 1018.82 1018.74 1018.78 1018.70 1018.62 1018.62 1018.62 1018.62 1018.70 1018.50 1018.54 1018.54 1018.46 1018.30 1018.22 1018.22 1018.26 1018.38 1018.46 1018.54 1018.70 1018.74 1018.78 1018.94 1019.10 1019.10 1019.34 1019.58 1019.70 1019.58 1019.46 1019.26 1018.78 1018.46 1018.38 1018.34 1018.30 1018.22 1017.98 1017.98 1018.38 1018.34 1018.34 1018.42 1018.34 1018.30 1018.18 1018.26
Wind_Speed
8 7 6 8 11 13 14 14 15 14 13 13 13 14 13 12 12 11 11 11 12 10 10 9 9 8 9 9 7 6 6 7 6 7 7 7 6 7 7 7 7 7 6 7 6 7 6 5 6 6 5 5 5 5 5 4 3 3 3 2 2 2 2
10 8 7 6 9 13 14 15 15 14 13 14 13 14 13 13 12 12 12 12 13 13 12 11 10 9 10 9 7 7 7 7 7 6 6 6 5 6 7 7 7 7 7 7 6 6 5 6 6 6 6 5 5 4 4 4 4 4 3 3 3 3 2
11 9 8 7 8 11 13 13 14 15 15 14 14 14 14 14 13 14 13 12 13 12 11 12 12 11 9 8 7 7 7 7 6 7 8 8 7 8 6 6 7 7 8 6 6 6 5 6 6 6 6 6 6 5 5 4 4 4 4 3 3 3 3
12 11 10 8 6 7 12 14 15 14 14 16 16 16 15 15 14 13 13 14 14 12 12 12 12 11 10 9 9 7 7 7 8 7 7 7 8 7 7 5 6 5 6 7 7 6 5 5 6 6 6 6 6 5 5 5 5 4 4 3 4 3 3
12 11 9 8 6 6 8 11 13 14 15 15 15 16 16 15 14 12 12 13 15 15 14 13 11 10 9 9 8 7 8 8 7 7 6 6 6 6 7 8 7 7 7 6 6 6 5 5 5 6 5 5 5 5 6 5 5 5 5 4 4 3 4
12 13 11 10 7 5 7 11 13 14 15 15 14 14 13 14 13 14 14 13 12 12 12 12 12 11 10 9 8 8 6 6 6 6 7 6 7 7 8 8 8 7 6 7 6 6 6 6 6 5 6 5 5 5 5 5 5 5 5 5 5 4 5
10 10 11 11 9 6 5 7 9 10 10 13 13 13 13 13 15 14 13 13 13 14 12 12 12 11 10 9 9 8 8 8 7 7 6 7 7 7 7 7 7 7 7 5 6 6 6 6 6 6 6 6 6 6 5 5 5 5 5 5 5 5 5
8 9 9 12 12 9 6 5 7 7 7 7 10 12 14 13 13 13 14 13 13 12 12 13 12 11 10 9 9 9 9 8 7 7 6 7 7 7 7 6 6 6 4 6 6 6 7 7 6 5 6 6 6 6 6 6 6 5 5 5 5 5 4
1 2 3 5 6 5 4 6 7 9 10 10 12 12 13 13 13 14 14 13 12 13 13 12 12 11 10 10 10 10 9 8 8 7 7 8 7 7 7 6 6 5 6 6 6 5 6 6 6 6 6 6 6 6 6 6 6 5 5 5 6 6 5
8 9 10 10 8 6 4 6 5 2 4 9 9 11 13 13 13 13 12 13 12 13 13 12 11 10 10 9 10 10 9 9 8 8 8 8 7 7 7 6 5 5 6 7 6 7 6 6 6 5 6 6 6 6 6 6 6 5 6 7 6 6 6
10 9 6 8 5 4 5 8 9 9 11 12 8 4 4 10 13 12 12 12 12 13 13 12 11 10 10 10 10 9 9 9 8 9 8 9 7 8 7 6 6 5 7 7 7 6 6 6 5 6 6 7 7 6 6 7 6 6 6 6 6 6 6
7 8 10 10 10 10 7 4 6 7 6 5 6 7 10 12 10 3 1 2 1 5 10 11 10 10 10 10 10 9 9 9 9 10 10 9 8 8 8 7 6 6 6 7 8 7 6 7 6 6 7 7 7 7 7 6 6 7 7 7 6 6 6
6 3 3 5 6 5 5 7 3 4 8 8 5 5 3 2 3 6 7 8 9 11 11 8 2 4 9 10 10 9 9 10 10 9 9 9 8 7 6 7 7 7 8 7 8 8 7 7 7 7 7 7 7 7 7 7 6 6 7 7 6 7 7
7 5 3 2 4 3 6 6 1 2 0 7 8 8 7 8 5 1 4 9 9 11 10 6 4 5 6 2 7 8 9 9 8 8 8 7 7 7 7 7 7 7 7 7 8 9 8 8 8 8 7 7 7 7 6 6 6 6 6 6 6 6 6
4 3 2 3 1 1 2 3 5 9 6 5 6 7 9 8 8 8 7 6 6 7 10 11 11 8 10 7 5 5 5 6 6 6 7 8 8 8 8 8 7 7 6 6 7 8 8 8 8 8 7 6 6 6 6 6 7 6 6 6 6 6 6
3 3 4 3 1 3 5 4 2 3 5 6 6 6 6 6 7 9 10 10 8 5 4 9 9 9 8 7 7 4 2 1 3 5 6 6 8 8 8 8 7 7 7 7 8 8 7 7 7 7 7 7 6 6 6 6 5 7 11 9 7 7 6
5 7 6 5 4 4 4 5 5 5 4 2 0 2 4 4 5 6 7 8 8 6 4 3 8 9 8 7 7 6 5 4 2 3 3 6 6 6 7 7 7 6 7 8 8 8 7 7 7 7 7 7 7 7 6 6 6 10 11 12 11 6 5
6 6 6 5 4 4 4 5 6 6 6 5 1 4 4 5 5 6 6 6 8 6 2 5 7 9 8 7 7 7 7 4 3 3 4 7 2 2 3 5 6 4 5 8 9 8 7 8 9 8 8 7 7 7 7 7 8 12 11 12 12 9 6
7 7 7 6 5 5 5 6 6 6 7 6 3 2 7 9 9 8 9 11 10 10 6 2 1 1 4 5 5 5 6 6 5 4 4 4 9 2 6 7 8 8 10 11 8 3 5 6 6 7 7 7 8 8 8 7 10 12 12 12 12 12 8
9 8 7 8 8 7 5 5 5 6 7 7 7 8 7 1 7 5 4 5 7 9 8 8 6 5 4 2 5 5 4 6 5 5 5 5 0 8 6 4 8 8 3 1 2 6 4 2 2 2 3 3 5 6 6 6 9 12 13 12 12 11 8
7 8 8 8 8 8 9 9 9 9 9 9 8 8 8 7 4 6 5 3 4 4 7 6 7 7 5 2 2 2 3 4 4 3 3 4 4 2 7 4 5 7 3 1 1 4 4 3 6 4 1 1 0 1 3 3 3 7 10 10 10 9 6
6 7 8 7 7 8 8 9 10 10 9 8 9 8 7 6 6 8 7 7 7 6 5 4 5 4 5 4 3 1 2 3 4 4 4 4 4 4 4 2 3 2 3 1 3 5 0 2 3 1 2 3 2 0 3 3 0 2 3 5 6 6 5
6 6 6 6 6 7 7 8 9 8 8 9 8 8 7 6 5 6 8 8 8 8 7 6 6 5 4 5 4 3 3 2 3 3 4 5 4 3 3 4 7 7 5 5 5 5 5 4 4 4 4 4 3 3 3 3 2 2 2 3 3 3 5
5 5 6 6 6 8 7 7 7 7 7 8 8 7 6 6 6 7 8 7 7 8 8 8 7 5 4 4 4 4 3 2 1 2 2 3 3 4 3 3 5 6 4 6 7 7 6 6 5 3 2 4 5 5 4 3 3 5 2 1 2 5 5
5 5 6 5 5 6 6 5 5 6 7 8 8 6 5 6 7 8 8 7 7 8 9 7 6 5 4 3 2 2 3 2 3 3 4 4 2 2 3 5 6 4 4 4 4 5 3 4 5 5 5 6 5 7 7 1 1 4 5 3 2 3 4
5 5 5 4 4 4 3 4 6 8 8 8 7 6 6 6 8 9 8 7 7 8 7 6 5 3 3 4 4 5 4 4 5 5 3 4 3 1 1 1 1 2 3 4 4 5 5 5 5 6 6 5 4 4 1 1 2 2 1 1 2 4 5
4 4 4 4 4 4 5 6 7 7 7 6 6 6 6 6 8 8 7 7 8 8 5 3 2 3 4 4 5 6 6 5 5 5 5 4 4 2 3 3 2 3 4 3 3 3 3 4 4 5 4 3 4 2 3 2 3 3 5 5 4 5 4
5 5 5 4 6 5 6 7 8 9 9 9 9 8 7 6 7 7 7 8 8 7 4 3 3 3 5 6 6 5 5 6 7 7 6 6 5 5 4 4 3 3 1 4 4 4 3 2 2 1 3 5 6 5 5 5 7 4 8 8 8 8 8
4 4 4 5 6 6 5 6 7 8 7 8 8 8 7 7 8 7 8 10 9 7 5 4 4 4 4 5 6 6 6 6 7 6 4 5 4 4 4 3 4 5 4 1 2 2 2 2 3 4 5 6 5 5 5 6 5 9 7 10 12 12 12
4 4 4 4 3 3 4 5 5 6 7 7 7 7 8 8 8 8 10 10 8 7 6 6 5 5 5 5 5 6 6 6 6 5 5 4 4 6 7 7 6 6 5 4 1 4 4 4 4 5 5 5 5 5 5 4 5 8 11 8 11 13 13
3 4 4 4 4 4 4 5 5 6 7 7 7 6 6 6 8 8 9 7 6 7 6 5 6 7 7 7 6 6 5 6 6 6 6 5 5 6 6 6 6 6 6 5 5 3 4 3 4 5 5 5 4 4 5 6 7 6 9 12 11 12 13
3 3 3 4 4 4 3 4 5 5 5 6 7 6 5 6 7 7 4 4 5 5 5 6 7 7 6 6 5 5 5 6 7 7 6 6 5 5 5 6 6 6 6 5 4 4 5 4 5 5 5 5 5 5 4 4 5 6 7 8 10 9 12
3 3 3 4 2 3 3 4 4 4 4 4 5 5 5 5 5 3 3 5 5 5 5 6 6 6 6 6 5 4 4 5 5 5 6 5 5 4 4 4 5 6 6 6 5 5 5 5 6 6 5 5 4 4 4 5 5 5 5 6 6 6 7
3 2 1 1 2 3 3 3 3 3 3 3 3 3 3 4 5 5 5 5 5 5 5 5 5 6 6 6 5 5 6 6 9 7 5 6 6 6 6 6 5 6 6 5 5 5 6 7 6 6 5 4 3 3 4 5 5 5 5 5 5 5 5
3 3 3 3 1 1 2 1 1 1 1 1 2 3 3 4 4 5 6 6 5 4 4 5 4 5 6 5 6 6 6 6 5 5 5 5 6 6 6 6 6 5 4 4 3 3 5 8 6 5 5 5 4 4 3 3 4 3 2 2 5 4 4
1 2 3 2 2 2 1 0 0 0 1 0 1 2 3 4 4 4 4 4 5 5 4 3 4 5 5 5 5 5 5 5 5 4 4 4 4 5 6 10 11 9 6 4 6 7 6 6 5 4 5 6 3 2 3 2 1 2 1 2 4 5 5
2 2 2 2 3 2 2 2 1 1 2 3 1 1 1 2 3 3 4 4 4 4 3 3 3 3 4 4 4 5 4 4 5 4 4 4 4 5 5 5 7 11 13 11 10 8 10 12 11 10 7 4 2 0 3 2 1 3 3 5 5 5 6
3 3 2 2 3 4 4 3 3 3 4 3 2 3 2 3 3 3 3 3 3 3 3 3 3 3 2 3 2 3 3 3 3 3 4 3 2 3 4 4 5 6 8 9 9 10 10 10 10 9 8 8 6 2 0 3 1 5 6 5 6 6 6
Wind_Direction
178 175 173 181 180 181 181 182 181 181 181 181 182 181 180 178 179 176 177 180 185 182 183 181 186 187 189 190 186 182 182 181 181 181 184 186 184 179 184 192 194 197 194 196 204 204 209 202 197 199 200 204 202 204 208 211 217 224 219 208 197 223 223
188 184 166 173 184 184 184 182 182 182 182 183 183 182 181 181 179 180 182 183 186 185 183 184 185 190 192 193 181 176 178 186 186 185 182 184 185 186 187 187 191 197 196 199 198 204 198 202 194 197 202 203 211 207 205 206 208 212 215 209 210 234 223
190 184 168 161 190 188 186 185 185 185 184 184 184 183 185 183 182 183 182 184 188 188 185 187 188 189 191 191 185 185 181 180 187 188 186 187 188 189 194 187 191 192 199 198 195 196 199 197 197 200 198 199 206 204 202 203 207 206 210 209 217 219 230
193 187 181 170 186 201 189 187 187 188 188 185 184 185 186 185 184 185 183 184 186 186 188 192 189 189 189 190 192 187 187 188 191 193 194 189 188 188 186 192 193 191 188 199 198 194 198 194 196 200 203 200 205 204 197 199 199 200 204 196 215 224 232
194 193 183 178 179 196 195 192 192 189 190 190 187 185 185 183 182 184 188 188 186 187 189 189 191 191 192 190 192 193 192 190 195 199 196 195 192 186 190 192 191 191 196 193 194 195 198 196 198 199 205 201 205 198 203 199 196 194 199 197 210 220 231
193 196 189 189 191 192 200 198 196 193 190 188 188 187 186 182 182 186 188 187 191 191 188 187 189 189 192 192 192 193 191 195 196 197 197 197 191 194 197 197 191 195 192 199 193 200 197 199 201 198 202 205 203 201 200 200 201 191 195 194 209 217 221
193 197 192 191 197 197 199 202 200 200 198 193 188 186 182 182 185 188 184 187 189 187 189 190 191 188 192 187 193 190 192 196 194 200 199 200 199 199 201 199 196 196 200 185 203 197 199 203 205 201 202 200 202 201 199 201 203 198 191 192 207 213 216
192 194 199 196 197 197 189 190 193 195 198 201 192 185 184 187 186 183 186 189 187 189 189 188 190 190 187 187 188 192 191 195 194 198 199 203 202 204 204 201 199 198 186 196 207 196 203 204 205 201 200 201 203 202 202 203 206 204 191 200 207 215 208
254 199 199 213 210 205 188 194 196 187 189 186 187 189 189 186 186 186 188 186 186 187 192 190 190 188 185 186 187 192 190 188 191 191 198 204 205 208 209 206 206 194 196 204 206 202 202 203 203 200 200 205 206 204 206 204 207 204 198 207 209 213 216
13 51 40 30 21 16 11 356 338 312 191 184 185 186 188 190 189 188 187 187 185 190 190 190 188 186 185 187 191 189 187 189 189 191 196 203 207 209 211 207 205 200 204 207 203 202 208 203 202 197 200 205 207 205 208 208 209 208 206 208 208 211 217
0 346 26 39 49 78 60 49 28 18 15 1 342 312 220 194 188 189 191 187 187 191 189 187 183 182 186 188 190 190 190 193 190 192 196 203 203 209 209 210 208 203 209 208 210 207 202 206 200 200 200 205 207 207 209 209 207 210 214 214 210 212 215
29 23 22 29 19 14 31 81 108 95 80 49 26 29 21 8 355 339 355 6 289 213 191 185 180 182 183 185 188 191 194 196 197 199 200 203 204 206 208 208 209 206 210 208 211 209 203 201 200 201 206 208 208 206 209 208 206 210 214 214 214 213 218
54 37 34 48 76 76 18 2 35 111 133 137 142 138 116 110 127 122 112 87 68 39 12 359 340 205 186 183 188 188 197 200 201 202 205 207 210 210 208 211 212 207 210 207 210 208 206 205 204 209 208 211 207 209 207 207 206 208 213 216 214 213 214
57 54 34 47 45 61 121 131 125 317 312 146 145 152 148 147 164 167 141 153 166 153 156 163 117 57 7 295 199 192 198 202 200 204 207 209 212 213 214 215 214 212 209 206 211 211 209 206 206 212 210 212 209 212 208 208 209 209 212 214 213 212 217
85 76 62 45 36 337 64 103 152 163 199 197 168 161 159 157 152 144 148 170 192 175 169 159 158 164 166 196 224 214 199 189 195 203 206 210 210 211 215 215 214 210 207 209 214 214 213 212 210 210 212 215 212 212 208 207 213 210 207 210 215 212 217
64 94 63 36 353 346 342 26 73 222 201 173 162 150 149 152 159 161 160 164 176 178 182 163 160 156 167 175 168 156 114 198 207 194 200 209 209 213 215 215 212 209 213 213 213 215 216 213 212 210 212 213 214 213 211 212 211 212 211 206 203 207 214
31 32 49 47 33 8 5 21 12 359 350 335 152 135 125 129 141 150 148 152 137 129 217 197 153 163 169 165 157 145 148 127 75 351 249 210 207 211 208 215 213 215 219 218 211 213 214 211 208 210 211 210 209 211 214 214 212 214 214 215 214 203 207
45 39 44 52 45 41 40 38 28 26 19 12 52 131 127 121 117 117 115 108 121 116 180 201 168 162 170 171 156 147 143 120 101 90 13 329 260 116 66 46 5 313 253 223 216 213 211 209 209 209 206 206 206 209 212 215 219 215 214 211 209 206 200
35 38 38 27 29 37 36 46 45 37 23 20 9 205 165 146 137 143 149 141 135 132 120 66 7 97 136 141 140 134 125 118 113 101 82 358 325 302 129 113 97 50 8 349 336 279 203 214 212 212 209 203 204 210 209 214 216 214 210 207 206 209 207
25 20 21 20 20 27 31 28 39 35 32 20 11 14 353 37 122 123 110 116 123 122 125 127 105 50 9 50 118 123 145 137 134 141 145 137 161 306 311 140 131 124 127 285 43 25 10 14 148 156 200 229 224 219 214 216 217 210 210 210 210 210 208
21 19 18 14 16 14 30 36 35 34 30 21 15 14 11 10 19 86 77 88 96 97 117 121 127 133 134 106 38 96 126 123 137 156 179 159 158 203 287 306 78 80 89 254 268 119 107 51 3 354 15 63 40 316 275 263 284 218 215 215 213 209 209
39 34 30 18 27 26 29 33 39 39 37 27 19 17 28 26 31 60 62 60 61 52 56 83 107 121 121 112 124 159 146 146 147 151 154 140 136 153 228 250 94 118 194 170 44 322 271 160 140 146 314 334 4 163 230 212 133 296 268 249 244 240 240
52 40 34 29 27 30 29 35 36 34 48 49 38 28 20 9 19 71 74 67 63 65 53 59 60 55 89 113 115 101 73 72 105 123 116 100 107 133 195 182 166 198 188 120 150 210 230 222 216 214 213 221 223 217 221 231 174 165 246 267 269 247 243
33 37 34 32 32 34 30 29 41 42 47 51 53 42 32 33 38 51 59 64 72 76 72 65 49 39 41 59 65 70 73 73 86 105 96 88 123 151 187 182 172 195 191 171 185 196 200 201 211 210 216 236 250 242 236 230 169 176 180 240 264 243 243
49 44 34 30 35 39 31 29 44 51 48 49 47 24 36 51 57 57 55 55 60 71 72 65 61 60 60 46 73 106 99 111 124 115 113 127 154 206 196 185 180 185 175 178 204 223 218 230 229 226 219 217 225 234 233 215 81 68 27 346 293 240 242
58 41 28 19 26 34 45 34 46 41 40 40 28 14 24 42 54 53 50 44 48 56 58 57 51 39 55 68 70 71 57 50 50 44 60 106 131 86 305 274 217 193 194 197 194 211 211 220 230 239 243 240 236 236 147 134 157 116 46 27 313 261 252
55 46 34 19 14 21 43 38 38 37 33 22 15 20 14 21 52 49 45 46 47 39 29 30 60 75 77 78 64 55 64 59 51 52 46 43 48 36 24 351 294 226 206 207 210 218 218 219 223 232 244 248 249 188 103 149 124 85 61 38 7 339 303
48 36 25 22 30 31 35 37 34 31 28 21 25 22 18 22 49 45 36 35 27 10 358 352 9 46 66 73 77 74 61 54 49 47 37 32 40 38 25 355 352 351 235 176 180 198 226 242 243 26 58 59 55 61 67 82 81 81 52 41 37 24 18
75 67 41 30 29 24 44 48 44 39 27 19 23 23 17 29 46 40 35 30 5 348 355 5 23 33 57 64 66 66 67 66 69 68 61 46 43 64 48 15 24 21 19 6 147 118 118 101 84 89 76 66 63 59 58 52 51 51 51 40 33 29 22
80 71 55 44 48 35 49 62 53 46 32 25 27 30 29 32 41 34 31 13 345 355 4 6 4 18 35 51 67 73 71 76 72 67 60 57 56 49 38 24 15 22 18 355 91 124 114 98 101 95 95 89 60 43 42 40 40 39 37 37 34 27 23
84 82 75 63 38 34 48 58 58 50 38 26 23 28 36 40 44 39 29 354 351 7 9 14 24 30 26 26 33 46 51 61 63 62 59 44 44 56 36 32 29 35 12 13 16 69 106 103 107 111 109 93 77 54 36 27 30 24 18 22 29 25 19
64 71 71 64 41 37 40 48 53 51 44 24 17 15 25 32 45 44 360 348 8 9 13 33 35 36 29 27 36 38 34 44 39 37 36 48 46 50 47 42 38 39 25 16 42 56 74 82 112 101 83 86 78 66 59 41 33 27 16 13 10 14 10
106 102 95 72 62 79 52 54 46 42 41 29 3 11 12 23 29 32 3 19 4 9 15 39 45 40 29 24 24 41 57 60 45 33 27 19 23 32 30 36 39 45 37 35 21 49 82 77 61 48 56 69 65 68 60 55 44 26 13 8 2 1 358
138 97 36 90 84 96 81 73 77 57 45 22 346 1 18 25 17 7 14 15 12 8 27 39 45 48 34 26 22 36 42 38 51 52 42 28 21 15 11 19 20 46 42 24 34 50 55 52 58 56 46 38 38 50 61 55 50 37 10 1 356 346 348
171 167 161 131 126 90 109 118 91 73 80 13 319 352 21 24 15 8 14 8 7 14 38 37 34 42 43 35 39 29 42 54 58 55 50 44 41 44 36 9 354 14 36 43 12 18 73 85 72 68 60 56 26 17 51 48 54 53 36 10 5 4 343
186 166 185 189 146 124 141 68 87 324 337 295 320 353 10 6 359 2 10 12 12 16 42 35 36 38 29 34 46 46 42 38 43 46 57 59 54 58 64 58 52 22 12 21 28 44 31 82 103 119 110 88 59 55 74 39 353 328 74 53 19 357 341
178 213 218 151 132 134 160 203 229 271 284 286 321 340 344 341 343 345 352 15 24 33 26 41 57 31 28 37 36 59 62 53 49 53 61 60 67 55 57 44 45 44 33 27 18 24 71 81 79 66 49 75 133 55 162 180 210 291 341 26 24 356 340
224 209 198 170 166 171 179 193 202 210 242 279 318 322 331 330 321 333 327 353 26 43 51 29 59 62 16 13 26 47 67 65 67 62 65 54 75 103 88 78 70 45 39 38 27 20 33 59 75 77 70 39 24 356 189 149 131 26 17 12 11 357 350